This demonstration page uses our WeatherBlox Daily Observations layout. Learn more.

Left ArrowRight Arrow

36.17497, -115.13722

Hourly Observations for January 9, 2019

Temp ( °F °C ) Dew Point ( °F °C ) Humidity (%) Winds ( mph kmh ) Pressure ( in mb ) Visibility ( mi km ) Precip ( " mm )
12:53 am 00:53 Clear 44 6.7 37 2.8 76 76 WNW 5 7 30.23 1024 10 16.0934 0 0
1:53 am 01:53 Clear 44 6.7 37 2.8 76 76 N 5 7 30.24 1024 10 16.0934 0 0
2:53 am 02:53 Clear 45 7.2 37 2.8 74 74 N 8 13 30.23 1024 10 16.0934 0 0
3:53 am 03:53 Clear 44 6.7 36 2.2 73 73 Calm 30.22 1023 10 16.0934 0 0
4:53 am 04:53 Clear 43 6.1 36 2.2 76 76 Calm 30.22 1024 10 16.0934 0 0
5:53 am 05:53 Clear 42 5.6 35 1.7 76 76 WSW 3 6 30.23 1024 10 16.0934 0 0
6:53 am 06:53 Sunny 42 5.6 35 1.7 76 76 Calm 30.25 1024 10 16.0934 0 0
7:53 am 07:53 Sunny 44 6.7 36 2.2 73 73 Calm 30.26 1025 10 16.0934 0 0
8:53 am 08:53 Sunny 51 10.6 38 3.3 61 61 Calm 30.28 1025 10 16.0934 0 0
9:53 am 09:53 Sunny 53 11.7 37 2.8 55 55 SE 3 6 30.28 1025 10 16.0934 0 0
10:53 am 10:53 Sunny 54 12.2 36 2.2 51 51 SSE 6 9 30.25 1024 10 16.0934 0 0
11:53 am 11:53 Sunny 58 14.4 36 2.2 44 44 ESE 9 15 30.2 1023 10 16.0934 0 0
12:53 pm 12:53 Sunny 59 15 36 2.2 42 42 SSE 7 11 30.17 1022 10 16.0934 0 0
1:53 pm 13:53 Sunny 60 15.6 36 2.2 41 41 ESE 7 11 30.15 1021 10 16.0934 0 0
2:53 pm 14:53 Sunny 61 16.1 36 2.2 39 39 ESE 9 15 30.13 1020 10 16.0934 0 0
3:53 pm 15:53 Sunny 60 15.6 36 2.2 41 41 ESE 7 11 30.14 1021 10 16.0934 0 0
4:53 pm 16:53 Clear 57 13.9 36 2.2 45 45 SE 6 9 30.14 1021 10 16.0934 0 0
5:53 pm 17:53 Clear 56 13.3 36 2.2 47 47 S 6 9 30.16 1021 10 16.0934 0 0
6:53 pm 18:53 Clear 53 11.7 36 2.2 52 52 W 3 6 30.16 1021 10 16.0934 0 0
7:53 pm 19:53 Clear 51 10.6 37 2.8 59 59 WSW 5 7 30.16 1021 10 16.0934 0 0
8:53 pm 20:53 Clear 49 9.4 37 2.8 64 64 NW 3 6 30.17 1022 10 16.0934 0 0
9:53 pm 21:53 Clear 46 7.8 36 2.2 68 68 N 3 6 30.18 1022 10 16.0934 0 0
10:53 pm 22:53 Clear 47 8.3 36 2.2 66 66 NNW 7 11 30.17 1022 10 16.0934 0 0
11:53 pm 23:53 Clear 45 7.2 36 2.2 71 71 NNW 3 6 30.15 1021 10 16.0934 0 0

Powered by AerisWeather